This demonstration page uses our WeatherBlox Daily Observations layout. Learn more.

Left ArrowRight Arrow

39.12711, -84.51439

Hourly Observations for October 10, 2016

Temp ( °F °C ) Dew Point ( °F °C ) Humidity (%) Winds ( mph kmh ) Pressure ( in mb ) Visibility ( mi km ) Precip ( " mm )
12:53 am 00:53 Clear with Mist and Fog 46 7.8 46 7.8 100 100 Calm 30.37 1028 6 10 0.00 0.00
1:46 am 01:46 Clear with Mist and Fog 45 7.2 45 7.2 100 100 Calm 30.36 1028 1 2 0.00 0.00
1:48 am 01:48 Mostly Cloudy with Mist and Fog 45 7 45 7 100 100 Calm 30.36 1028 1 1 0.00 0.00
1:53 am 01:53 Mostly Cloudy with Fog 43 6.1 43 6.1 100 100 Calm 30.37 1028 1 1 0.00 0.00
2:00 am 02:00 Mostly Clear with Mist and Fog 45 7 45 7 100 100 Calm 30.36 1028 2 3 0.00 0.00
2:07 am 02:07 Mostly Clear 45 7.2 45 7.2 100 100 Calm 30.36 1028 7 11 0.00 0.00
2:53 am 02:53 Clear with Mist and Fog 45 7.2 45 7.2 100 100 Calm 30.37 1029 6 10 0.00 0.00
3:16 am 03:16 Clear with Mist and Fog 45 7 45 7 100 100 Calm 30.39 1029 2 3 0.00 0.00
3:26 am 03:26 Clear with Mist and Fog 45 7.2 45 7.2 100 100 Calm 30.39 1029 6 10 0.00 0.00
3:53 am 03:53 Clear 44 6.7 44 6.7 100 100 Calm 30.38 1029 9 14 0.00 0.00
4:14 am 04:14 Clear with Mist and Fog 43 6 43 6 100 100 Calm 30.39 1029 2 3 0.00 0.00
4:20 am 04:20 Clear with Mist and Fog 45 7 45 7 100 100 Calm 30.39 1029 3 5 0.00 0.00
4:53 am 04:53 Clear with Mist and Fog 43 6.1 43 6.1 100 100 Calm 30.38 1029 5 8 0.00 0.00
5:53 am 05:53 Clear 43 6.1 43 6.1 100 100 Calm 30.40 1030 9 14 0.00 0.00
6:53 am 06:53 Clear 43 6.1 43 6.1 100 100 Calm 30.42 1030 10 16 0.00 0.00
7:53 am 07:53 Sunny 43 6.1 43 6.1 100 100 VRB 5 7 30.43 1031 10 16 0.00 0.00
8:53 am 08:53 Sunny 47 8.3 46 7.8 97 97 NE 3 6 30.44 1031 10 16 0.00 0.00
9:53 am 09:53 Sunny 52 11.1 47 8.3 83 83 Calm 30.44 1031 10 16 0.00 0.00
10:53 am 10:53 Sunny 58 14.4 47 8.3 67 67 VRB 6 9 30.44 1031 10 16 0.00 0.00
11:53 am 11:53 Sunny 61 16.1 48 8.9 63 63 SSE 6 9 30.44 1031 10 16 0.00 0.00
12:53 pm 12:53 Sunny 64 17.8 47 8.3 54 54 VRB 3 6 30.42 1030 10 16 0.00 0.00
1:53 pm 13:53 Sunny 66 18.9 48 8.9 52 52 Calm 30.39 1029 10 16 0.00 0.00
2:53 pm 14:53 Sunny 68 20 50 10 53 53 S 7 11 30.37 1028 10 16 0.00 0.00
3:53 pm 15:53 Sunny 69 20.6 50 10 51 51 Calm 30.35 1028 10 16 0.00 0.00
4:53 pm 16:53 Sunny 69 20.6 50 10 51 51 E 7 11 30.34 1027 10 16 0.00 0.00
5:53 pm 17:53 Sunny 68 20 49 9.4 51 51 E 3 6 30.33 1027 10 16 0.00 0.00
6:53 pm 18:53 Sunny 59 15 53 11.7 81 81 VRB 3 6 30.33 1027 10 16 0.00 0.00
7:53 pm 19:53 Clear 55 12.8 52 11.1 90 90 Calm 30.34 1028 10 16 0.00 0.00
8:53 pm 20:53 Clear 53 11.7 52 11.1 96 96 Calm 30.35 1028 10 16 0.00 0.00
9:53 pm 21:53 Clear 51 10.6 51 10.6 100 100 Calm 30.35 1028 10 16 0.00 0.00
10:53 pm 22:53 Clear 50 10 50 10 100 100 Calm 30.35 1028 10 16 0.00 0.00
11:53 pm 23:53 Clear 49 9.4 49 9.4 100 100 Calm 30.34 1028 9 14 0.00 0.00

Powered by AerisWeather